This demonstration page uses our WeatherBlox Daily Observations layout. Learn more.

Left ArrowRight Arrow

53.62937, 11.41316

Hourly Observations for June 7, 2017

Temp ( °F °C ) Dew Point ( °F °C ) Humidity (%) Winds ( mph kmh ) Pressure ( in mb ) Visibility ( mi km ) Precip ( " mm )
6:20 am 06:20 Mostly Sunny 52 11 45 7 77 77 SSW 9 15 29.65 1004 7 11 N/A
6:50 am 06:50 Mostly Sunny 52 11 45 7 77 77 SW 12 19 29.65 1004 7 11 N/A
7:20 am 07:20 Mostly Sunny 54 12 46 8 77 77 SSW 13 20 29.68 1005 7 11 N/A
7:50 am 07:50 Mostly Sunny 55 13 46 8 72 72 SSW 14 22 29.68 1005 7 11 N/A
8:20 am 08:20 Mostly Sunny 55 13 46 8 72 72 SW 17 28 29.68 1005 7 11 N/A
8:50 am 08:50 Mostly Sunny 57 14 48 9 72 72 SW 18 30 29.68 1005 7 11 N/A
9:20 am 09:20 Mostly Cloudy 57 14 46 8 67 67 SSW 18 30 29.68 1005 30 48 N/A
9:50 am 09:50 Mostly Cloudy 57 14 46 8 67 67 SSW 17 28 29.71 1006 30 48 N/A
10:00 am 10:00 Mostly Cloudy 57 14 46 8 67 67 SSW 16 26 29.71 1006 30 48 N/A
10:20 am 10:20 Mostly Cloudy 59 15 48 9 68 68 SSW 20 31 29.71 1006 30 48 N/A
10:50 am 10:50 Mostly Cloudy 59 15 48 9 68 68 SSW 17 28 29.71 1006 30 48 N/A
11:20 am 11:20 Mostly Cloudy 61 16 48 9 63 63 SSW 18 30 29.71 1006 30 48 N/A
11:50 am 11:50 Mostly Cloudy 59 15 48 9 68 68 SSW 22 35 29.71 1006 30 48 N/A
12:20 pm 12:20 Mostly Cloudy 61 16 45 7 55 55 SW 23 37 29.71 1006 30 48 N/A
12:31 pm 12:31 Mostly Cloudy 61 16 46 8 59 59 SSW 20 31 29.71 1006 30 48 N/A
12:50 pm 12:50 Mostly Cloudy 63 17 45 7 52 52 SSW 26 43 29.71 1006 30 48 N/A
1:20 pm 13:20 Mostly Cloudy 59 15 43 6 55 55 SW 28 44 29.74 1007 30 48 N/A
1:50 pm 13:50 Mostly Sunny 59 15 45 7 59 59 SSW 21 33 29.74 1007 7 11 N/A
2:05 pm 14:05 Mostly Sunny 59 15 46 8 63 63 SSW 23 37 29.74 1007 7 11 N/A
2:20 pm 14:20 Mostly Sunny 61 16 46 8 59 59 SSW 22 35 29.74 1007 7 11 N/A
2:50 pm 14:50 Mostly Sunny 63 17 48 9 59 59 SSW 17 28 29.74 1007 7 11 N/A
2:52 pm 14:52 Mostly Cloudy 61 16 46 8 59 59 SSW 18 30 29.74 1007 30 48 N/A
3:20 pm 15:20 Windy with Rain Showers Likely 52 11 48 9 88 88 WSW 22 35 29.74 1007 5 8 N/A
3:28 pm 15:28 Mostly Cloudy 55 13 52 11 88 88 SW 14 22 29.77 1008 30 48 N/A
3:50 pm 15:50 Mostly Sunny 57 14 50 10 77 77 SW 14 22 29.77 1008 7 11 N/A
4:03 pm 16:03 Windy with Rain Showers Likely 55 13 48 9 77 77 SW 23 37 29.80 1009 30 48 N/A
4:20 pm 16:20 Windy with Rain Showers Likely 54 12 50 10 88 88 SSW 21 33 29.80 1009 30 48 N/A
4:50 pm 16:50 Mostly Cloudy 55 13 48 9 77 77 SSW 16 26 29.80 1009 30 48 N/A
5:20 pm 17:20 Mostly Cloudy with Light Showers 55 13 50 10 82 82 SSW 15 24 29.80 1009 30 48 N/A
5:50 pm 17:50 Mostly Cloudy with Light Showers 55 13 50 10 82 82 SSW 15 24 29.80 1009 30 48 N/A

Powered by AerisWeather